Temperature
30 29 27 26 28 28 28 26 24 24 27 28 27 26 26 25 24 23 21 21 20 20 19 19 19 19 18 17 17 17 16 16 16 16 16 16 16 16 16 16 16 15 15 15
29 26 26 28 29 30 30 29 27 26 26 27 27 27 26 26 25 23 22 21 21 20 20 20 19 19 19 18 17 17 16 16 15 15 15 15 15 15 16 16 16 15 15 15
27 26 27 29 30 30 30 28 28 26 26 26 26 25 25 25 24 24 23 22 22 21 21 20 20 19 19 18 18 17 16 15 15 14 14 14 14 15 15 15 15 15 15 14
29 30 30 30 30 30 27 28 28 28 26 25 24 21 22 22 23 24 23 22 22 21 21 20 20 20 19 18 18 17 16 15 14 14 13 13 13 13 14 14 14 14 14 14
28 30 30 30 30 30 29 29 28 26 24 22 18 17 18 20 21 23 23 23 22 22 21 21 20 20 19 18 17 17 16 15 14 13 13 12 12 12 12 13 13 13 14 14
28 31 31 31 31 31 31 29 26 22 21 19 18 18 18 20 22 23 23 23 22 22 22 21 21 20 19 18 17 17 16 15 14 13 12 12 12 12 12 12 12 13 13 14
27 29 31 32 30 29 30 28 24 20 18 19 20 19 20 23 24 24 24 23 23 22 22 21 21 20 19 18 17 16 15 14 14 13 12 12 11 11 11 12 12 12 12 13
27 26 29 31 30 29 29 29 26 25 24 23 21 20 22 25 25 24 24 24 23 23 22 22 21 19 19 18 17 16 15 14 13 12 12 11 11 11 11 11 11 11 11 12
28 28 31 31 31 30 29 29 30 28 28 26 23 22 22 25 25 25 25 24 24 23 22 21 20 19 18 17 16 15 14 13 12 12 11 11 11 10 10 10 10 10 10 11
30 29 30 31 31 30 30 30 29 27 26 26 26 23 22 24 25 25 25 24 23 22 21 20 19 18 17 16 15 14 14 13 12 11 11 11 10 9 9 9 9 9 9 9
30 28 29 30 29 29 29 29 28 28 27 26 26 24 25 25 25 25 25 24 23 21 20 19 18 17 16 15 15 14 13 12 12 11 10 10 9 9 9 9 9 9 9 9
30 29 27 27 28 29 29 28 28 26 26 27 26 25 26 26 25 25 24 23 21 20 19 18 18 16 15 15 14 13 12 12 11 11 10 10 9 9 9 8 8 8 8 8
28 28 26 25 25 27 29 29 28 27 27 26 26 25 26 27 26 24 23 22 21 20 19 18 17 16 15 14 13 12 12 11 11 10 10 9 9 9 8 8 8 8 8 8
27 28 27 26 27 28 29 29 29 27 26 26 26 26 26 26 24 24 22 21 20 19 18 17 16 15 14 13 13 12 12 11 11 10 9 9 9 8 8 8 8 8 8 8
29 28 28 29 29 29 29 29 28 27 27 26 26 26 26 25 24 23 22 21 20 19 18 17 16 15 14 13 12 12 11 11 10 10 9 9 9 8 8 8 8 8 8 8
29 27 27 27 28 28 28 28 28 27 27 27 26 26 26 25 24 23 22 21 20 19 17 16 15 15 14 13 12 12 11 11 10 9 9 9 8 8 8 8 8 8 8 7
28 27 26 26 28 28 27 28 28 27 27 27 25 25 25 24 23 22 21 20 19 18 17 16 15 14 13 13 12 12 11 10 10 9 9 8 8 8 8 8 7 7 7 7
27 26 26 26 26 25 27 29 28 27 27 27 26 25 25 24 23 22 20 19 18 17 16 15 14 14 13 13 12 11 11 10 9 9 8 8 8 8 7 7 7 7 7 7
29 27 26 26 25 26 27 28 27 26 25 26 25 25 24 24 23 21 19 18 18 16 15 14 14 13 13 12 12 11 10 10 9 9 8 8 8 7 7 7 7 7 7 7
29 27 26 26 25 24 27 28 27 26 25 25 25 24 24 23 22 22 19 18 17 16 15 14 14 13 12 12 11 10 10 9 9 8 8 7 7 7 7 7 7 7 7 7
27 26 26 25 25 26 28 27 27 25 24 24 24 23 23 22 21 20 19 18 17 16 15 14 13 13 12 11 11 10 9 9 8 8 7 7 7 7 7 7 7 7 7 7
27 27 26 26 26 26 27 27 26 25 25 24 24 23 23 22 21 20 19 18 16 15 15 14 13 12 12 11 10 9 9 8 8 8 7 7 7 7 7 7 7 7 7 7
28 28 27 27 26 26 27 26 26 25 25 24 24 23 22 21 20 20 18 17 16 15 14 13 12 12 11 10 10 9 8 8 7 7 7 7 7 7 7 7 7 7 7 7
28 29 27 26 27 27 27 27 26 26 25 24 24 23 22 21 20 19 18 17 16 15 13 13 12 11 11 10 9 8 8 7 7 7 7 7 7 7 7 7 8 8 8 7
28 28 27 26 27 27 27 26 26 26 25 24 24 23 22 21 20 19 18 16 15 14 13 12 12 11 10 9 9 8 7 7 7 7 7 7 7 7 7 8 8 8 8 8
28 28 27 27 27 27 26 26 26 26 25 24 24 23 22 21 20 18 17 16 15 14 13 12 11 10 10 9 8 7 7 7 6 6 6 7 7 7 7 8 8 8 8 8
Wind_Speed
13 8 6 11 12 7 10 13 11 10 5 2 7 11 12 11 11 11 11 10 10 10 9 8 7 7 7 5 4 3 4 6 6 5 7 7 6 6 6 5 2 3 5 5
5 7 11 17 17 12 10 7 4 3 2 4 5 9 11 11 11 12 12 11 11 10 8 6 5 4 4 4 3 3 6 7 7 7 7 7 7 7 7 4 4 4 5 5
3 11 19 18 14 11 9 11 7 4 7 10 8 6 9 9 10 11 11 10 10 8 6 4 2 2 3 4 5 6 5 6 8 9 8 9 8 8 7 7 5 4 5 6
4 7 10 10 10 9 6 8 12 11 6 4 3 1 4 6 7 9 10 9 8 5 4 2 2 4 5 6 6 6 5 6 6 8 9 11 10 10 10 8 7 9 8 7
9 7 7 8 7 6 5 7 3 11 11 9 10 4 4 5 8 9 9 9 7 5 2 1 3 4 5 7 7 5 4 4 5 6 9 10 10 9 9 10 11 10 9 8
20 11 6 7 8 8 8 5 5 13 9 6 4 4 6 9 11 11 9 7 5 3 2 2 4 4 4 6 6 6 6 5 6 7 8 9 9 9 11 12 11 9 7 6
13 7 5 5 7 8 11 9 4 3 1 7 9 6 5 8 8 9 7 6 3 1 3 3 5 6 5 6 6 6 7 7 7 7 7 7 8 10 11 11 9 10 9 8
3 2 5 7 8 6 8 8 7 9 6 2 7 4 4 9 8 5 3 2 1 3 5 7 8 8 7 8 7 7 7 7 6 7 7 6 8 8 8 10 11 10 10 9
7 4 2 5 6 7 8 10 12 11 9 3 7 8 7 6 6 3 1 2 4 5 8 9 10 10 9 8 7 7 7 6 7 7 7 7 6 7 9 9 10 10 9 11
9 9 3 2 3 2 8 9 8 8 9 9 6 8 6 5 3 5 6 7 7 9 10 12 11 11 10 9 7 7 7 7 7 8 7 10 8 8 8 9 9 10 10 9
8 7 7 5 7 9 8 9 8 9 9 8 7 7 8 5 5 6 8 8 9 10 12 12 11 11 11 11 10 8 8 8 7 7 7 8 8 8 9 8 8 8 9 9
6 6 7 9 10 9 4 6 7 7 8 8 8 6 4 4 5 6 7 8 9 10 10 11 11 10 11 11 11 10 10 10 8 8 8 8 8 9 9 10 9 8 9 9
8 5 5 2 4 8 5 3 4 6 8 8 8 4 0 5 9 10 10 10 9 9 10 10 10 10 11 11 11 11 11 11 11 10 9 9 10 10 9 9 9 9 9 10
4 6 7 8 6 5 7 7 5 6 8 9 10 11 11 11 10 10 9 8 9 9 9 10 9 8 9 9 9 11 11 11 11 11 11 10 10 10 10 10 10 10 10 10
4 9 10 11 10 8 8 9 8 7 8 9 10 12 10 10 9 9 8 9 9 9 10 10 9 8 8 9 9 10 10 10 10 11 12 11 11 10 11 11 11 10 11 13
2 6 12 14 12 10 11 11 7 6 8 9 10 10 11 11 10 10 10 10 9 9 11 12 12 11 10 9 10 10 10 9 9 10 12 11 11 12 12 11 12 11 11 11
6 7 10 13 13 13 10 5 2 6 8 8 10 9 10 11 10 10 10 8 8 10 12 12 12 11 9 9 9 9 9 10 10 11 12 12 12 13 13 15 14 13 12 12
6 7 7 12 14 14 7 1 2 4 6 8 8 7 9 9 8 7 6 7 8 10 11 12 12 12 11 10 10 9 11 11 11 12 12 13 13 14 14 14 15 13 12 12
8 5 8 10 13 12 3 2 2 3 8 6 4 7 10 10 11 5 7 6 7 9 10 10 12 13 12 12 10 11 12 12 12 13 13 14 14 15 15 16 15 14 12 12
6 6 8 10 14 16 15 5 6 4 3 7 6 8 9 10 9 6 8 8 8 9 10 11 12 13 11 10 11 12 12 12 13 13 14 14 15 15 16 16 15 13 12 12
8 9 11 12 14 10 6 9 1 6 4 4 7 7 8 7 6 8 9 8 8 9 10 11 11 11 10 10 10 11 12 12 12 13 14 15 15 15 16 15 12 12 12 12
10 10 10 10 11 5 6 0 6 5 4 6 7 7 7 6 7 7 8 8 8 9 11 11 10 10 10 10 10 12 12 12 13 13 14 15 16 16 15 14 13 12 11 11
7 8 7 7 8 1 4 7 6 5 6 6 7 7 6 7 7 7 7 7 8 9 10 11 11 11 10 10 10 12 12 12 13 14 15 16 17 15 15 13 13 11 9 8
10 7 7 8 11 10 10 11 8 7 7 7 7 6 7 7 7 7 7 7 8 8 10 10 12 12 11 11 11 10 11 12 12 14 15 15 15 15 14 11 10 9 8 8
13 12 13 14 13 11 12 10 9 8 8 9 8 7 7 7 7 7 6 6 7 8 9 10 10 11 12 12 11 11 11 11 13 14 14 15 14 14 13 11 9 9 7 5
13 12 10 11 9 8 9 11 12 10 9 9 9 9 8 7 6 6 5 6 6 8 8 9 11 12 12 12 12 11 11 11 13 13 13 12 12 12 11 11 10 8 7 6
Wind_Direction
235 244 321 321 298 260 210 203 205 222 259 267 158 156 157 151 144 133 130 127 120 112 111 107 103 98 95 83 67 50 24 21 351 2 341 327 327 330 317 310 4 344 329 325
305 341 296 260 255 257 249 246 165 155 312 282 209 168 153 157 145 141 141 139 136 130 126 123 117 94 81 73 44 27 25 10 356 359 322 310 329 320 304 327 344 336 339 326
213 222 237 254 272 291 319 343 323 253 223 236 229 179 148 144 138 145 143 139 136 138 132 121 78 43 32 33 21 24 27 16 10 351 331 339 330 315 321 333 322 345 338 314
333 252 258 282 295 311 328 319 297 294 269 270 35 275 143 138 159 162 148 145 144 142 151 151 330 3 6 8 6 24 28 32 13 355 340 334 323 321 328 327 328 332 320 302
305 284 294 300 302 296 259 227 323 10 10 20 39 30 280 199 191 180 165 162 157 165 190 259 318 344 359 357 354 356 12 20 5 350 335 330 324 326 322 322 312 307 298 286
302 295 301 317 318 329 311 277 36 37 23 341 243 197 227 209 197 173 166 164 166 189 250 288 310 341 5 351 347 346 356 359 357 343 328 320 320 321 315 304 297 300 301 306
295 309 317 334 341 358 316 307 330 2 192 239 220 201 214 175 154 148 155 163 172 223 275 300 339 354 355 348 354 352 351 351 346 329 318 320 316 308 298 303 324 332 323 319
307 323 324 355 346 327 302 315 324 316 306 207 173 190 130 113 109 117 119 112 283 303 332 350 357 0 357 356 359 352 347 341 333 325 320 312 297 303 316 328 325 311 301 301
339 335 0 15 338 343 337 341 337 321 320 348 147 132 121 130 135 122 21 329 332 355 356 355 358 355 358 357 355 347 342 337 331 323 312 298 318 332 321 313 304 305 312 312
333 328 354 353 307 16 344 339 353 337 346 346 58 107 123 127 48 15 352 353 6 3 358 358 352 349 351 346 345 345 341 336 329 325 328 327 334 317 311 311 308 304 303 304
352 323 323 343 11 353 352 7 2 344 358 343 351 76 96 61 28 2 352 4 7 4 356 347 345 348 344 339 341 343 340 337 333 332 331 324 317 314 307 301 302 309 311 311
4 325 341 16 2 326 351 14 359 353 343 323 330 96 79 43 39 24 7 7 10 2 349 343 343 345 340 337 338 337 337 330 330 331 326 318 314 310 308 308 309 305 301 300
350 324 319 13 316 283 300 359 352 337 305 312 330 65 3 19 37 28 18 7 356 355 350 344 344 340 334 335 334 330 326 326 327 324 320 315 312 309 306 304 301 299 296 293
299 298 318 330 336 328 320 324 342 328 326 329 340 347 353 29 21 8 357 349 348 352 351 343 340 333 332 330 328 324 322 324 321 321 316 309 307 305 303 300 298 296 294 292
291 311 324 316 315 310 310 314 319 317 316 311 326 331 4 28 4 353 347 348 342 344 342 339 334 329 328 327 324 319 318 319 319 315 310 306 305 303 300 298 298 296 294 294
236 305 311 310 313 296 291 295 283 297 304 301 314 325 12 5 354 350 346 336 333 340 338 333 331 329 326 323 318 316 315 318 317 311 308 307 305 304 302 301 297 296 296 295
302 309 309 305 307 301 304 313 286 318 318 317 313 336 4 348 340 331 324 324 341 340 334 333 332 325 320 315 314 313 316 318 316 312 310 309 309 309 307 306 304 300 299 297
257 289 296 295 305 300 312 96 357 337 325 305 310 4 357 334 332 337 26 18 348 337 336 334 326 321 318 321 321 322 318 318 319 316 314 313 311 309 307 304 300 299 297 295
226 252 284 294 294 297 310 219 169 336 313 316 356 353 335 340 324 70 59 7 346 345 336 326 322 319 319 317 323 322 316 318 318 317 317 316 313 308 305 303 301 299 297 294
227 212 254 277 290 294 303 123 108 338 327 56 11 347 338 332 319 352 15 354 352 340 329 324 321 320 318 322 325 317 316 319 320 322 319 314 309 305 303 299 297 297 295 292
236 235 248 269 278 291 76 112 299 318 34 357 341 339 326 338 320 322 329 340 339 330 327 326 325 323 322 322 323 317 317 320 324 322 316 312 308 304 299 296 297 297 296 295
292 283 277 279 283 300 109 330 322 339 330 311 320 315 317 313 306 312 323 329 330 330 329 331 326 322 323 326 328 321 321 326 323 318 315 312 309 306 304 302 300 297 296 296
291 294 300 299 309 323 257 287 296 289 278 280 290 306 311 303 305 312 320 327 330 328 329 327 325 324 327 332 332 325 328 326 322 319 314 312 310 307 302 299 299 301 300 299
305 331 304 289 285 284 284 293 291 276 268 268 274 283 286 289 297 307 317 323 323 327 326 327 326 324 326 332 333 333 329 328 323 317 315 313 310 308 306 302 300 300 302 308
298 291 279 275 276 277 276 279 284 274 261 256 258 265 270 275 285 298 311 319 325 322 323 326 323 325 327 332 332 333 333 330 322 317 315 313 310 307 306 304 298 296 298 300
289 295 297 299 303 291 290 285 276 266 252 253 256 260 263 266 277 293 308 319 316 316 323 324 325 325 326 328 329 333 334 329 321 317 316 313 309 307 306 305 306 291 274 255
Height
1479 1483 1490 1489 1480 1479 1478 1486 1497 1494 1482 1480 1482 1487 1491 1495 1499 1503 1507 1510 1513 1515 1517 1518 1519 1519 1519 1518 1518 1517 1516 1514 1513 1511 1509 1507 1506 1504 1502 1500 1497 1495 1492 1490
1482 1492 1491 1482 1473 1469 1469 1476 1484 1485 1480 1481 1482 1484 1487 1492 1497 1502 1506 1509 1512 1514 1517 1518 1519 1519 1519 1518 1518 1517 1515 1513 1511 1509 1507 1506 1504 1501 1500 1498 1495 1493 1490 1487
1486 1485 1477 1475 1470 1468 1470 1478 1480 1483 1481 1480 1484 1490 1490 1494 1498 1503 1506 1508 1510 1513 1515 1517 1518 1518 1518 1518 1517 1515 1513 1511 1509 1507 1505 1503 1500 1498 1497 1495 1493 1490 1488 1485
1476 1473 1471 1469 1469 1469 1481 1477 1476 1479 1486 1490 1497 1513 1504 1500 1502 1503 1506 1508 1510 1512 1514 1516 1516 1517 1517 1516 1515 1513 1511 1508 1506 1504 1502 1500 1498 1495 1493 1491 1489 1487 1485 1483
1480 1469 1468 1469 1467 1468 1473 1470 1478 1487 1495 1508 1521 1534 1521 1509 1506 1503 1504 1507 1508 1510 1512 1513 1514 1515 1514 1514 1513 1511 1509 1506 1504 1502 1500 1498 1495 1492 1489 1487 1485 1483 1481 1480
1479 1468 1464 1464 1462 1463 1464 1469 1481 1494 1507 1527 1524 1532 1525 1511 1502 1499 1502 1504 1507 1508 1510 1511 1512 1512 1512 1511 1510 1509 1506 1504 1501 1499 1497 1495 1492 1488 1485 1483 1481 1479 1478 1477
1484 1471 1464 1462 1465 1468 1468 1479 1500 1520 1531 1527 1511 1520 1511 1494 1493 1496 1500 1503 1505 1506 1507 1508 1509 1509 1509 1508 1507 1505 1503 1501 1498 1496 1493 1491 1488 1485 1482 1480 1477 1475 1474 1473
1491 1492 1471 1465 1468 1473 1470 1473 1494 1506 1505 1504 1507 1514 1501 1491 1494 1497 1498 1500 1502 1503 1505 1506 1507 1507 1506 1505 1504 1502 1500 1497 1495 1492 1490 1487 1484 1481 1479 1476 1473 1471 1470 1469
1483 1482 1466 1466 1466 1468 1471 1472 1466 1476 1477 1487 1498 1500 1499 1492 1493 1495 1496 1497 1499 1501 1503 1505 1505 1505 1504 1503 1501 1499 1496 1494 1491 1489 1486 1483 1480 1477 1474 1471 1469 1467 1465 1463
1473 1481 1469 1467 1465 1466 1469 1469 1474 1483 1493 1496 1490 1499 1503 1496 1493 1492 1494 1495 1498 1501 1502 1503 1504 1503 1502 1500 1498 1496 1493 1490 1488 1485 1482 1479 1475 1472 1469 1466 1464 1462 1460 1458
1473 1484 1478 1472 1476 1478 1475 1476 1479 1480 1483 1498 1499 1503 1489 1491 1492 1493 1494 1496 1499 1501 1502 1503 1502 1501 1499 1498 1495 1493 1490 1487 1484 1481 1477 1474 1471 1468 1465 1462 1460 1457 1454 1452
1476 1480 1488 1486 1479 1475 1474 1478 1482 1495 1497 1488 1490 1501 1485 1487 1489 1492 1494 1497 1499 1501 1502 1501 1500 1499 1497 1495 1492 1490 1487 1484 1480 1477 1473 1470 1467 1463 1460 1458 1455 1452 1449 1447
1484 1488 1497 1503 1498 1484 1476 1475 1477 1483 1488 1491 1495 1498 1484 1483 1487 1491 1495 1497 1499 1500 1500 1499 1498 1496 1494 1492 1489 1486 1484 1480 1477 1473 1469 1466 1463 1459 1456 1453 1450 1447 1444 1441
1488 1487 1494 1501 1492 1480 1479 1475 1475 1483 1491 1495 1492 1491 1483 1485 1489 1493 1495 1497 1498 1498 1498 1497 1495 1493 1491 1489 1486 1483 1480 1477 1473 1469 1466 1462 1459 1455 1452 1449 1445 1442 1439 1436
1486 1487 1484 1480 1474 1474 1476 1476 1477 1482 1486 1492 1490 1488 1485 1487 1490 1492 1494 1495 1496 1496 1496 1495 1493 1490 1488 1485 1482 1479 1476 1473 1469 1465 1461 1458 1454 1451 1447 1444 1440 1437 1433 1430
1483 1491 1488 1485 1477 1475 1475 1473 1475 1479 1481 1483 1485 1487 1484 1487 1489 1491 1493 1493 1493 1494 1493 1492 1489 1487 1484 1481 1479 1476 1472 1469 1465 1461 1457 1453 1450 1446 1442 1438 1434 1431 1427 1424
1483 1487 1493 1492 1480 1477 1482 1473 1474 1477 1477 1481 1487 1486 1485 1487 1490 1490 1490 1491 1491 1492 1491 1489 1486 1484 1481 1478 1475 1471 1468 1464 1461 1457 1453 1449 1444 1440 1436 1432 1428 1424 1420 1417
1485 1489 1492 1491 1489 1500 1479 1467 1471 1476 1478 1478 1479 1482 1486 1487 1487 1488 1488 1490 1491 1490 1488 1486 1483 1480 1477 1474 1471 1467 1464 1460 1456 1452 1448 1443 1439 1434 1430 1425 1421 1417 1414 1410
1477 1485 1491 1493 1494 1486 1475 1469 1472 1478 1480 1476 1479 1483 1485 1485 1486 1486 1489 1489 1489 1487 1485 1483 1480 1477 1473 1470 1466 1463 1459 1456 1451 1447 1443 1438 1433 1428 1423 1419 1415 1411 1407 1403
1475 1480 1488 1490 1497 1497 1475 1465 1471 1477 1480 1479 1481 1483 1484 1484 1485 1484 1486 1486 1485 1484 1482 1479 1476 1473 1470 1466 1462 1458 1455 1451 1447 1442 1437 1432 1427 1422 1417 1413 1409 1405 1401 1397
1480 1482 1485 1487 1488 1477 1466 1469 1472 1483 1486 1481 1481 1482 1483 1483 1486 1486 1484 1483 1482 1481 1479 1476 1473 1469 1466 1462 1458 1454 1451 1447 1442 1437 1431 1426 1421 1416 1412 1407 1404 1400 1396 1392
1475 1478 1479 1478 1484 1482 1470 1471 1474 1478 1477 1478 1479 1480 1481 1482 1482 1482 1481 1480 1479 1477 1475 1472 1469 1466 1462 1458 1454 1450 1446 1442 1437 1431 1426 1421 1415 1411 1407 1403 1399 1395 1391 1387
1467 1467 1469 1472 1475 1471 1469 1470 1470 1472 1474 1475 1476 1477 1478 1478 1479 1479 1478 1477 1476 1474 1472 1469 1466 1462 1458 1455 1450 1446 1441 1436 1432 1426 1421 1416 1410 1406 1402 1398 1395 1391 1387 1383
1463 1462 1465 1468 1466 1466 1466 1466 1466 1468 1469 1471 1473 1474 1474 1475 1475 1475 1475 1474 1472 1470 1468 1465 1462 1458 1455 1451 1446 1442 1437 1432 1427 1422 1417 1411 1406 1401 1398 1395 1391 1387 1384 1380
1464 1463 1463 1463 1461 1461 1462 1462 1463 1464 1465 1466 1468 1469 1470 1471 1472 1472 1472 1471 1469 1467 1465 1462 1459 1455 1451 1447 1442 1438 1433 1428 1423 1418 1413 1407 1403 1398 1394 1391 1388 1384 1381 1377
1459 1458 1459 1459 1457 1458 1459 1460 1459 1459 1460 1461 1463 1465 1466 1467 1468 1468 1468 1468 1466 1464 1462 1459 1455 1452 1447 1443 1438 1434 1429 1424 1419 1414 1409 1404 1399 1395 1391 1388 1384 1380 1377 1374